WGS F1 (USA 195)

Last updated on Jan. 26, 2020, 4:40 a.m. UTC

1 32258U 07046A   20025.77275870  .00000033  00000-0  00000+0 0  9994
2 32258   0.0256 100.7738 0001106 281.4551  26.4740  1.00272080 44916
UTC
Height (km)
Latitude
Longitude
Inclination
Orbital Period
UTC large
Height (km)
Speed (km/s)
/
Latitude / Longitude
Inclination (degrees)
Orbital Period (minutes)
Azimuth
Elevation
Range (km)
Doppler Factor
iOS Compass Heading
iOS Angle

Next 30 passes for location: Hong Kong

Rise time Rise Azimuth (degrees) Set time Set Azimuth (degrees) Duration Max altitude (degrees)

No matching passes for this satellites